Regional Weather Roundup
Issued by NWS Midland/Odessa, TX

Home | Current Version | Previous Version | Text Only | Print | Product List | Glossary On
Versions: 1 2 3 4 5 6 7 8 9 10 11 12 13 14 15 16 17 18 19 20 21 22 23 24 25 26 27 28 29 30 31 32 33 34 35 36 37 38 39 40 41 42 43 44 45 46 47 48 49 50
000
ASUS44 KMAF 040610
RWRMAF
MIDLAND AREA WEATHER ROUNDUP
NATIONAL WEATHER SERVICE MIDLAND TX
1200 AM CST SUN DEC 04 2016

...IN SOUTHWEST TEXAS AND SOUTHEAST NEW MEXICO...

CITY           SKY/WX    TMP DP  RH WIND       PRES   REMARKS
ALPINE         CLOUDY    38  37  99 CALM      30.06S
ANDREWS        CLOUDY    40  40 100 N5        30.03S WCI  37
ARTESIA        CLOUDY    39  39 100 SW5       30.03R WCI  36
BIG SPRING     CLOUDY    42  42  97 N3        30.03S
CARLSBAD       MOCLDY    38  38 100 W5        30.02S WCI  34
DRYDEN           N/A     47  44  90 N8        29.97R
FORT STOCKTON  FOG       41  41 100 W12       30.03R VSB 1   WCI  34
GUAD PASS      MIX PCPN  34  34 100 NE16      30.00S VSB 1/4 WCI  24
HOBBS          CLOUDY    39  39 100 NW5       30.03S WCI  36
MARFA          CLOUDY    38  36  92 N7        30.00S WCI  33
MIDLAND AIRPK  CLOUDY    43  43 100 N6        30.02R WCI  40
MIDLAND INTL   CLOUDY    43  40  89 N8        30.00S WCI  38
ODESSA         CLOUDY    43  39  86 NW7       30.02R WCI  39
PECOS          CLOUDY    41  40  95 NW7       30.05R WCI  36
PRESIDIO       CLOUDY    46  42  85 CALM      29.97R
SEMINOLE       CLOUDY    41  40  98 CALM      30.03S
SNYDER         RAIN      42  41  99 N5        30.02R WCI  39
WINK           CLOUDY    43  42  97 N5        30.02R
$$
...OTHER STATIONS IN TEXAS...

CITY           SKY/WX    TMP DP  RH WIND       PRES   REMARKS
ABILENE        CLOUDY    45  45 100 NW6       29.99S
AMARILLO       CLOUDY    38  38 100 CALM      30.01R
AUSTIN         CLOUDY    51  49  92 N12       29.91F
BROWNSVILLE    LGT RAIN  67  66  97 N6        29.81F
CORPUS CHRISTI TSTM      64  63  96 NE13      29.82F FOG
DALLAS FTW     CLOUDY    48  45  89 NE8       29.95F
DEL RIO        LGT RAIN  52  49  89 N5        29.92S
EL PASO        MOCLDY    45  38  76 CALM      29.99S
HOUSTON INT    CLOUDY    53  51  93 NW7       29.92R
LUBBOCK        CLOUDY    41  39  93 CALM      30.01R
SAN ANGELO     LGT RAIN  47  45  93 NE6       29.98F
SAN ANTONIO    CLOUDY    52  49  89 N8        29.92R
WACO           CLOUDY    48  48 100 NE9       29.94F
WICHITA FALLS  NOT AVBL
$$
...OTHER LOCATIONS IN NEW MEXICO...

CITY           SKY/WX    TMP DP  RH WIND       PRES   REMARKS
ALAMAGORDO     NOT AVBL
ALBUQUERQUE    CLEAR     35  20  54 N8        30.11R WCI  29
CANNON AFB     CLOUDY    32  32 100 N7        30.02R WCI  26
CLOVIS         CLOUDY    36  32  87 W6        30.01R VSB 1/2 WCI  31
HOLLOMAN AFB   CLEAR     40  37  87 CALM      30.05S
ROSWELL        MOCLDY    36  34  92 SW3       30.01S
RUIDOSO        CLEAR     32  25  74 NW7       30.04R WCI  26
SANTA FE       CLEAR     28  21  75 N13       30.07R WCI  17
TRUTH OR CONSE CLEAR     39  29  67 N6        30.03S WCI  35
TUCUMCARI      CLEAR     30  29  96 W7        30.01S WCI  23
$$




USA.gov is the U.S. government's official web portal to all federal, state and local government web resources and services.